Weather in Pilar

Paraguay     26°51′56″S   58°17′47″W
temp.,
°C
wind,
m/s
gust,
m/s
humid.,
%
clouds,
%
prec.,
mm/h
press.,
hPa
HPBL,
m
28 february, sun
sun2800:00+27ese514440 0.0 1012608
03:00+24e311630 0.0 1011347
06:00+22ese37770 0.0 1011189
09:00+27ene47580 0.0 1014687
12:00+34ene33370 0.0 10121523
15:00+37ese44290 0.0 10092583
18:00+35ese55292 0.0 10062398
21:00+29ese411411 0.0 1008397
1 march, mon
mon100:00+25ese310540 0.0 1009290
03:00+22ese25720 0.0 1008150
06:00+21ese25840 0.0 1009120
09:00+26e24630 0.0 1010326
12:00+38nne11320 0.0 10091484
15:00+41s11220 0.0 10052768
18:00+37se432512 0.0 10042638
21:00+29se374016 0.0 1005169
2 march, tue
tue200:00+26e23520 0.0 100766
03:00+24ne126417 0.0 100724
06:00+23ene127663 0.0 100823
09:00+29nne235933 0.0 1009372
12:00+37ne223415 0.0 10091972
15:00+40ese222224 0.0 10062986
18:00+35ese573295 0.0 10051229
21:00+30e384863 0.0 1007227
3 march, wed
wed300:00+27ese275925 0.0 1009190
03:00+26ene276613 0.0 1009168
06:00+24ne25730 0.0 1010114
09:00+29nne35593 0.0 1011376
12:00+37nne333554 0.0 10101964
15:00+37ese123177 0.0 10082531
18:00+36se353582 0.0 10061538
21:00+30se375077 0.0 1008190
4 march, thu
thu400:00+24e3118498 2.4 1009247
03:00+23nne398793 2.4 1009293
06:00+23nne229199 0.0 100958
09:00+27nne1373100 0.0 1011407
12:00+33ne2347100 0.0 10101349
15:00+34ese1243100 0.0 10071725
18:00+33ene2344100 0.0 1005253
21:00+22w61297100 12.6 1008500